Location: Gadern
(49.5873°N, 8.8138°E)
Time: 23:18:47
(UTC+00:00)

Cosmos 2082 Rocket - Pass Details

Date: 19 May 2025
Orbit: 832 x 853 km, 71.0° (Epoch: 15 June)

Event Time Altitude Azimuth Distance (km) Brightness Sun altitude
Exits shadow 20:00:15 - 118° (ESE) 2,610 4.1 -7.5°
Reaches altitude 10° 20:01:55 10° 101° (ESE) 2,443 4.1 -7.6°
Maximum altitude 20:02:38 10° 94° (E) 2,426 4.1 -7.7°
Drops below altitude 10° 20:03:22 10° 86° (E) 2,446 4.2 -7.8°
Sets 20:08:29 0° 47° (NE) 3,393 5.3 -8.4°
